GEFSSE_con_prob3kmehi_090.txt.gz
EHI
13 17 25 33 40 43 39 31 26 26 30 36 42 43 43 42 40 36 30 23 14 7 2 0 0 0 0 0 0 1 3 4 5 8 12 15 15 19 24 22 14 5 3
27 27 29 36 43 43 37 28 22 22 26 30 34 34 32 30 28 24 18 13 8 3 1 0 0 0 0 0 1 2 3 4 5 8 12 14 16 20 27 28 19 10 8
48 40 35 40 46 44 34 23 16 15 16 17 18 18 15 13 11 8 5 3 2 1 0 0 0 0 0 1 2 2 2 3 4 6 7 8 12 19 29 32 24 15 11
65 52 43 47 51 45 32 21 14 8 6 5 5 5 4 3 2 1 0 0 0 0 0 0 0 0 1 2 3 3 3 2 2 2 2 2 5 14 25 27 21 14 11
75 64 56 58 59 47 33 23 16 7 2 0 0 0 0 0 0 0 0 0 0 0 0 0 0 0 1 2 3 3 3 3 1 1 0 0 2 10 20 22 17 12 9
80 74 69 69 66 53 38 27 19 9 2 0 0 0 0 0 0 0 0 0 0 0 0 0 0 0 0 1 2 2 2 2 1 0 1 1 4 12 21 23 19 13 11
83 79 74 73 69 58 44 32 23 12 4 1 0 0 0 0 0 0 0 0 0 0 0 0 0 0 0 0 1 1 1 1 0 1 2 3 8 18 27 27 21 15 12
84 81 74 69 65 57 46 37 26 14 8 4 2 1 0 0 0 0 0 0 0 0 0 0 0 0 0 0 0 0 0 1 1 2 2 3 8 22 33 32 22 16 14
81 81 74 63 55 49 43 36 28 18 12 8 5 3 1 0 0 0 0 0 0 0 0 0 0 0 0 0 0 0 1 2 2 2 2 3 9 23 37 36 25 18 17
73 76 73 62 52 43 36 32 28 22 16 11 7 4 2 0 0 0 0 0 0 0 0 0 0 0 0 0 0 0 2 2 1 1 1 4 14 26 36 38 31 24 22
63 66 67 62 55 45 36 31 28 22 17 12 8 4 2 0 0 0 0 0 0 0 0 0 0 0 0 0 0 0 1 1 0 0 2 10 23 31 36 39 37 29 24
58 57 56 55 53 49 44 39 31 21 15 10 7 4 2 0 0 0 0 0 0 0 0 0 0 0 0 0 0 0 0 0 0 0 3 16 31 36 37 40 39 33 27
50 49 45 44 44 45 47 43 32 20 12 7 5 3 1 0 0 0 0 0 0 1 0 0 0 0 0 0 0 0 0 0 0 0 6 22 36 39 38 38 35 32 29
40 39 38 37 36 36 39 36 28 19 11 5 3 2 1 0 0 0 0 0 0 0 0 0 0 0 0 0 0 0 0 0 0 1 9 26 38 39 38 34 30 28 26
36 36 35 35 32 31 30 27 22 15 9 4 3 2 1 0 0 0 0 0 0 0 0 0 0 0 0 0 0 0 0 0 1 2 9 26 37 38 36 32 26 23 21
39 36 34 31 29 28 25 20 16 12 7 4 3 2 1 0 0 0 0 0 0 0 0 0 0 0 0 0 0 0 0 0 1 2 6 17 28 32 32 29 24 20 18
37 35 31 28 26 25 22 17 12 9 7 4 2 1 1 1 0 0 1 1 0 0 0 0 0 0 0 0 0 0 0 0 0 1 2 7 13 18 22 24 22 18 16
33 32 30 29 27 24 22 18 14 12 10 7 4 2 2 1 1 1 2 1 0 0 0 0 0 0 0 0 0 0 0 0 0 0 0 1 3 5 11 17 17 15 13
32 31 31 33 33 31 31 28 23 18 14 9 6 4 3 2 1 2 2 1 1 1 0 0 0 0 0 0 0 0 0 0 0 0 0 0 0 0 3 8 11 9 8
33 31 31 34 38 41 45 43 35 25 15 9 6 4 2 1 2 2 2 1 2 2 1 1 0 0 0 0 0 0 0 0 0 0 0 0 0 0 1 3 4 4 4
32 31 30 33 38 46 51 48 40 28 17 9 5 4 3 2 2 3 3 3 4 4 3 2 1 1 0 0 0 0 0 0 0 0 0 0 0 0 0 1 1 1 1
29 29 29 30 35 41 43 40 35 27 18 10 6 4 3 3 4 5 5 4 4 4 3 3 3 2 1 0 0 0 0 0 0 0 0 0 0 0 0 0 0 0 0
24 25 26 26 28 31 32 30 27 23 16 9 6 4 3 3 4 4 4 4 3 3 3 3 2 2 1 0 0 0 0 0 0 0 0 0 0 0 0 0 0 0 0
16 19 20 20 21 22 23 23 21 17 11 6 5 4 3 3 3 3 3 3 3 3 2 1 1 1 0 0 0 0 0 0 0 0 0 0 0 0 0 0 0 0 0
11 13 14 15 15 15 17 17 15 11 7 4 5 5 4 3 2 2 2 2 2 1 1 0 0 0 0 0 0 0 0 0 0 0 0 0 0 0 0 0 0 0 0
10 11 12 11 11 11 13 14 11 7 4 4 5 5 4 2 1 1 1 1 1 0 0 0 0 0 0 0 0 0 0 0 0 0 0 0 0 0 0 0 0 0 0

GEFSSE_con_prob3kmehi_096.txt.gz
EHI
24 31 34 28 27 42 65 81 89 92 92 90 88 81 68 52 34 18 7 2 0 0 0 1 2 3 4 5 4 4 3 1 0 0 0 0 0 0 0 0 0 1 2
36 39 39 33 31 43 63 78 85 89 91 90 88 84 73 57 41 25 12 4 1 0 0 1 2 3 3 3 2 2 1 0 0 0 0 0 0 1 1 0 0 1 2
56 53 46 39 37 47 65 78 82 85 87 86 85 81 72 58 45 31 17 7 2 1 0 1 1 2 1 1 0 0 0 0 0 0 0 0 1 2 2 1 1 1 2
73 66 54 45 44 53 70 81 83 82 80 79 77 72 63 51 40 28 16 6 2 1 0 0 0 0 0 0 0 0 0 0 0 0 0 0 1 4 5 3 2 1 1
79 73 61 53 51 58 72 81 81 77 73 71 68 63 55 44 32 23 12 4 1 0 0 0 0 0 0 0 0 0 0 0 0 0 0 0 1 5 6 4 3 1 1
76 71 66 62 59 63 72 77 76 72 67 65 62 56 47 36 26 18 9 2 0 0 0 0 0 1 1 0 0 0 0 0 0 0 0 0 1 4 5 4 3 3 2
75 70 68 70 66 64 67 70 70 67 64 61 57 48 36 27 20 13 5 1 0 0 0 0 1 2 2 1 0 0 0 0 0 0 0 0 1 3 4 3 3 3 4
77 73 70 70 65 59 59 62 65 64 60 56 50 39 27 19 13 8 3 0 0 0 0 0 1 2 2 1 0 0 0 0 0 0 0 0 1 3 4 2 2 3 4
79 77 72 64 56 51 51 56 60 60 54 48 40 29 18 13 8 4 1 0 0 0 0 0 0 1 1 0 0 0 0 0 0 0 0 0 1 2 4 3 3 5 5
78 74 67 61 55 50 48 49 50 51 47 39 30 21 13 9 5 2 0 0 0 0 0 0 0 0 0 0 0 0 0 0 0 0 0 1 1 2 3 4 6 8 8
75 66 60 60 61 58 53 47 44 43 41 34 25 17 11 7 4 2 1 0 0 0 0 0 0 0 0 0 0 0 0 0 0 0 0 1 1 1 2 5 8 12 13
71 63 55 56 63 64 60 56 53 49 44 35 25 16 10 5 4 3 2 1 1 0 0 0 0 0 0 0 0 0 0 0 0 0 0 0 1 2 3 6 11 14 15
70 63 53 51 58 63 64 64 62 57 51 40 27 17 11 6 4 4 3 2 2 1 0 0 0 0 0 0 0 0 0 0 0 0 0 0 1 3 5 9 12 14 14
67 62 51 48 53 59 63 64 62 58 53 42 28 19 15 10 5 3 3 2 1 0 0 0 0 0 0 0 0 0 0 0 0 0 0 1 2 4 8 12 13 13 12
60 56 49 46 51 56 60 60 57 53 49 39 28 21 17 11 4 1 1 1 0 0 1 1 0 0 0 0 0 0 0 0 0 0 0 1 2 5 9 12 12 12 13
49 48 47 44 45 50 54 54 50 46 42 35 28 22 16 8 2 0 0 0 0 0 1 1 0 0 0 0 0 0 0 0 0 0 0 0 1 5 8 10 10 10 12
40 41 43 42 39 39 42 43 40 37 34 31 27 22 15 7 2 0 0 0 0 0 0 0 0 0 0 0 0 0 0 0 0 0 0 0 0 2 5 6 6 7 8
34 35 36 35 32 29 30 30 28 26 24 23 21 18 12 7 3 1 0 0 0 0 0 0 0 0 0 0 0 0 0 0 0 0 0 0 0 0 2 3 3 3 4
29 29 28 26 25 25 24 22 19 16 15 15 14 11 8 6 4 2 1 0 0 0 0 0 0 0 0 0 0 0 0 0 0 0 0 0 0 0 0 1 1 1 1
25 25 23 21 21 22 22 18 15 12 11 10 8 5 4 3 3 3 1 0 0 0 0 0 0 0 0 0 0 0 0 0 0 0 0 0 0 0 0 0 1 1 1
23 20 18 18 18 19 20 17 15 13 10 8 5 3 1 1 2 3 2 1 1 0 0 0 0 0 0 0 0 0 0 0 0 0 0 0 0 0 0 0 1 1 0
22 18 15 16 17 17 16 15 13 11 9 5 3 3 1 0 1 2 3 3 2 1 1 1 1 1 0 0 0 0 1 0 0 0 0 0 0 0 0 0 0 0 0
20 18 17 16 15 14 11 11 11 10 7 4 2 2 1 0 0 1 2 3 3 3 2 2 2 1 0 0 0 0 0 0 0 0 0 0 0 0 0 0 0 0 0
15 16 15 15 13 10 9 10 10 9 6 3 2 1 1 0 0 0 1 3 3 3 3 3 2 1 0 0 0 0 0 0 0 0 0 0 0 0 0 0 0 0 0
10 10 11 11 10 8 8 9 9 8 5 3 2 1 0 0 0 0 1 2 2 2 2 2 2 1 0 0 0 0 0 0 0 0 0 0 0 0 0 0 0 0 0
8 8 8 8 9 9 9 9 8 6 4 3 3 2 1 0 0 0 0 1 1 1 1 1 1 0 0 0 0 0 0 0 0 0 0 0 0 0 0 0 0 0 0

GEFSSE_con_prob3kmehi_102.txt.gz
EHI
28 44 52 42 32 25 29 39 41 34 25 19 14 10 8 8 6 3 1 0 0 0 1 2 7 12 14 13 10 8 5 2 1 1 0 0 0 0 0 0 0 0 0
44 55 60 52 43 38 42 51 54 48 41 36 29 21 16 15 11 6 3 2 1 2 3 3 6 12 16 16 12 8 4 2 1 0 0 0 0 0 0 0 0 0 0
61 64 65 63 59 57 60 67 72 69 65 61 53 40 32 28 21 13 9 6 4 6 6 4 4 8 13 14 10 6 3 2 1 0 0 0 0 0 0 0 0 0 0
67 66 67 71 72 71 74 79 84 84 81 76 68 56 47 39 30 22 15 10 9 9 8 4 2 3 6 7 5 3 1 1 0 0 0 0 1 1 1 0 0 0 0
65 65 72 80 80 78 81 85 89 90 87 82 75 64 54 45 36 27 18 14 12 10 7 3 1 1 2 3 2 1 0 0 0 0 0 0 1 2 1 0 0 0 0
61 61 71 83 84 81 82 84 87 89 88 85 80 70 59 50 42 32 22 16 13 10 5 2 0 0 1 1 0 0 0 0 0 0 0 0 2 3 2 0 0 0 0
55 58 67 79 82 81 81 82 84 87 88 86 82 75 65 56 48 38 28 20 15 11 7 2 1 1 0 0 0 0 0 0 1 0 0 0 3 4 2 0 0 0 0
55 60 68 73 74 75 76 77 80 85 88 85 81 74 67 58 51 43 33 23 17 12 8 4 2 2 1 0 0 0 0 0 0 0 0 1 3 3 1 1 1 1 0
57 63 67 65 61 60 62 67 74 81 82 80 75 69 63 55 49 42 34 25 18 12 8 4 2 1 0 0 0 0 0 0 0 0 0 1 2 1 1 2 2 1 1
57 60 60 56 49 40 40 52 64 69 69 66 62 57 50 41 34 29 27 27 20 12 7 4 2 0 0 0 0 0 0 0 0 0 0 1 2 2 2 2 1 1 0
57 55 54 53 44 28 27 39 46 45 45 42 38 37 31 21 16 17 26 31 22 11 6 3 2 1 0 0 0 0 0 0 0 0 2 4 4 2 1 1 1 1 1
58 52 51 54 47 33 33 40 36 28 25 20 19 22 20 15 12 16 28 29 17 8 5 3 2 1 0 0 0 0 0 0 0 0 4 7 6 2 1 2 3 3 4
59 54 52 56 53 45 46 49 43 35 31 25 24 27 29 27 21 20 23 21 12 6 3 2 1 1 0 0 0 0 0 0 1 1 5 7 5 2 1 3 5 5 6
61 58 57 58 58 56 57 58 54 50 46 44 43 43 43 39 29 22 22 19 12 6 2 1 1 0 0 0 0 0 0 1 1 2 4 5 4 3 3 5 6 6 6
60 60 59 59 60 62 66 65 59 55 54 57 57 53 48 44 35 29 29 27 16 7 4 2 1 1 1 1 1 1 2 2 2 3 4 4 6 7 8 8 8 7 6
55 56 56 55 55 60 65 66 62 59 61 63 63 57 48 43 40 36 34 30 19 10 8 4 2 2 3 3 3 3 4 4 4 4 3 4 7 10 10 9 8 7 7
48 48 48 48 48 54 59 62 62 62 65 68 66 59 48 42 42 41 36 31 23 17 15 11 7 6 6 6 5 5 5 7 7 6 4 4 6 6 6 7 7 7 7
45 43 41 42 47 53 57 60 62 62 63 65 63 58 50 42 40 41 39 33 29 26 22 19 16 12 9 8 6 4 5 7 7 6 5 5 4 3 3 4 5 5 6
46 44 41 42 47 51 54 57 58 58 57 56 54 52 48 42 38 38 37 35 33 31 27 23 22 19 13 8 4 3 4 5 6 6 6 5 4 3 2 2 2 2 3
44 44 42 41 42 45 48 51 51 49 46 45 44 41 40 36 33 32 31 31 31 31 28 25 24 20 14 8 4 3 3 3 5 5 4 4 4 3 1 0 0 0 1
35 37 36 35 36 40 43 46 45 40 35 34 33 31 30 28 25 24 25 27 29 30 28 23 20 17 13 9 6 4 2 2 3 3 2 2 2 2 0 0 0 0 0
30 31 32 33 34 36 38 41 38 31 26 24 24 23 24 22 18 16 21 25 28 29 25 20 17 14 11 9 8 6 4 1 1 1 1 1 1 1 0 0 0 0 0
29 30 32 33 34 34 34 33 30 24 21 20 20 18 17 16 13 13 15 19 23 24 21 17 15 12 9 7 8 8 6 3 0 0 0 0 0 0 0 0 0 0 0
25 27 28 29 30 30 30 30 26 21 19 18 16 12 11 10 10 10 11 13 17 18 16 14 12 10 8 7 7 7 6 4 1 0 0 0 0 0 0 0 0 0 0
17 20 23 25 26 26 26 26 23 19 16 14 10 6 5 6 7 8 9 9 10 11 10 9 9 8 7 6 6 5 4 3 2 0 0 0 0 0 0 0 0 0 0
12 16 20 23 24 23 23 21 19 15 12 9 6 3 3 4 5 6 7 6 5 6 6 6 6 6 6 6 6 5 4 3 1 0 0 0 0 0 0 0 0 0 0

GEFSSE_con_prob3kmehi_108.txt.gz
EHI
77 76 75 61 36 16 6 2 0 0 0 0 0 0 1 2 4 8 11 10 7 4 1 0 0 0 1 3 4 3 3 2 1 5 11 14 11 7 3 2 1 1 0
84 84 79 63 39 19 8 3 1 0 0 0 0 0 1 2 3 5 6 6 5 3 1 1 0 0 1 2 3 2 2 1 1 3 6 7 5 3 2 3 4 2 1
89 86 79 65 45 26 15 8 3 0 0 0 0 1 2 3 3 2 2 3 3 2 2 1 0 0 0 1 1 1 0 0 0 0 1 1 0 0 1 3 5 3 1
86 81 76 70 55 36 24 16 7 2 1 0 1 2 3 4 3 1 1 1 2 2 1 1 0 0 0 0 0 0 0 0 1 1 0 0 0 0 0 1 3 2 1
79 77 78 78 69 51 37 27 17 9 5 3 4 5 5 4 4 2 1 0 1 1 1 0 0 0 0 0 0 0 0 1 3 3 2 1 1 1 1 0 0 0 0
71 72 76 81 77 66 53 42 31 22 15 12 11 10 9 8 6 3 1 0 1 2 1 0 0 0 0 0 0 0 0 3 4 3 3 3 3 3 2 1 0 0 0
64 67 73 78 78 73 66 57 49 40 33 29 27 23 20 15 10 5 3 2 2 2 1 0 0 0 0 0 0 0 0 2 4 3 3 6 6 4 3 2 1 0 0
64 67 72 74 73 72 70 67 64 59 53 52 48 41 34 23 13 8 7 6 3 1 0 0 0 0 0 0 0 0 0 1 2 2 4 9 9 6 5 4 2 0 0
67 69 69 66 64 64 66 70 73 71 68 65 60 51 40 26 15 10 10 8 5 2 1 0 0 0 0 0 0 0 0 1 2 3 6 11 12 9 7 6 4 1 0
69 67 61 56 54 53 56 64 70 72 70 64 56 46 33 20 11 8 9 10 7 3 1 0 0 0 0 0 0 0 0 1 3 5 8 13 15 12 8 6 4 1 0
69 64 55 50 47 43 47 56 60 60 58 50 39 31 21 9 4 4 10 15 11 4 1 0 0 0 0 0 0 0 0 2 4 6 10 17 19 16 10 6 3 1 0
68 60 50 46 43 38 43 52 51 44 40 31 23 18 11 4 3 9 19 24 16 6 1 0 0 0 0 0 0 0 1 2 4 6 13 23 25 19 12 7 4 3 2
68 60 51 46 41 37 43 50 44 36 30 22 16 13 8 6 11 21 29 27 16 6 1 0 0 0 0 0 1 1 1 2 4 7 16 26 25 18 13 10 8 6 6
65 60 55 51 44 44 50 50 42 38 33 25 22 20 16 14 19 27 30 23 13 5 1 1 0 0 1 2 2 2 3 6 8 8 15 24 24 19 17 14 11 9 8
61 58 56 55 54 56 59 55 48 46 43 38 38 37 30 26 26 29 26 19 11 6 4 3 2 3 5 6 5 5 9 14 15 11 12 19 23 22 20 17 13 10 9
62 59 56 57 60 62 64 61 54 52 51 52 53 49 41 35 35 34 29 22 14 12 14 11 8 10 12 10 10 11 15 21 21 14 10 12 16 17 17 16 13 12 11
65 63 60 60 61 62 64 62 59 56 56 58 58 53 45 42 43 42 36 27 20 22 25 20 14 15 16 13 14 15 18 22 21 16 10 7 7 9 11 11 10 10 11
66 64 62 61 62 62 62 61 61 61 60 60 58 53 46 43 44 44 39 31 27 29 30 23 18 17 16 15 16 17 18 18 17 14 10 7 6 7 7 8 7 7 7
64 62 58 57 59 60 59 58 58 59 59 58 56 51 44 39 38 38 35 33 31 30 27 22 19 18 16 15 14 14 14 13 12 11 9 8 8 8 7 7 7 6 5
59 58 54 51 52 53 53 52 51 50 48 46 44 41 37 33 31 30 30 31 30 27 24 22 20 19 17 13 8 6 7 9 10 10 10 10 8 7 7 6 5 4 4
53 51 49 46 44 45 46 46 45 41 37 32 29 28 27 25 25 24 25 28 27 24 24 23 19 15 13 10 4 1 2 5 7 8 9 8 6 4 3 3 3 3 3
44 44 42 40 39 40 41 40 38 35 30 26 23 21 20 19 18 18 19 23 23 22 21 20 15 10 7 5 3 1 1 2 3 3 4 4 2 1 1 2 2 2 2
34 36 37 37 36 38 38 35 32 28 23 22 21 19 16 15 14 13 14 18 20 18 16 14 12 8 5 4 3 2 2 1 1 1 0 0 0 0 0 1 1 1 1
26 27 30 33 33 34 34 31 27 23 20 19 18 15 12 12 11 11 12 14 15 14 12 10 8 7 6 4 3 2 1 1 0 0 0 0 0 0 0 0 0 0 0
19 19 21 24 25 26 27 26 23 20 18 17 15 12 9 8 8 8 9 12 12 11 10 8 7 6 5 3 2 1 1 1 1 1 0 0 0 0 0 0 0 0 0
16 15 15 17 18 19 21 22 20 16 14 15 15 12 8 6 6 6 8 10 10 9 8 8 6 4 2 2 1 1 2 2 2 2 1 0 0 0 0 0 0 0 0

GEFSSE_con_prob3kmehi_114.txt.gz
EHI
8 18 30 33 30 29 26 26 28 30 31 33 39 52 60 61 55 44 36 31 27 21 12 5 1 0 1 2 2 1 2 6 9 9 8 7 5 4 3 2 1 0 0
20 29 41 43 37 31 26 23 22 22 24 27 33 44 51 53 49 42 34 28 24 18 11 4 2 2 2 2 1 0 1 4 6 7 6 6 5 4 3 2 1 0 0
41 45 53 57 49 38 30 22 17 13 14 18 24 32 38 38 35 31 26 21 19 15 9 4 3 3 3 2 1 0 1 1 2 3 2 2 2 3 2 3 2 1 0
55 55 60 66 62 50 39 29 19 12 10 12 15 19 23 21 18 16 14 13 12 10 6 3 3 2 1 1 0 1 2 1 0 0 0 0 0 1 2 3 3 1 0
57 58 62 70 69 59 47 36 25 17 13 11 9 9 10 9 8 6 5 5 6 5 3 1 1 1 0 0 0 2 3 3 1 0 0 0 0 0 2 4 3 1 0
60 61 67 75 74 63 50 39 31 23 17 12 8 5 4 3 3 2 1 1 1 1 0 0 0 0 0 0 0 2 3 3 2 0 0 0 0 0 2 5 5 2 0
68 70 75 81 78 66 53 43 37 30 24 18 12 5 2 2 1 1 0 0 0 0 0 0 0 0 0 0 0 1 2 3 1 0 0 0 0 1 3 6 7 4 1
77 79 82 82 77 68 58 50 43 38 33 27 19 8 3 1 1 0 0 0 0 0 0 0 0 0 0 0 0 1 2 1 0 0 0 0 0 2 4 6 7 5 3
82 83 84 79 73 66 61 53 47 41 37 32 25 14 6 3 2 0 0 0 0 0 0 0 0 0 0 0 0 1 2 1 0 0 0 0 0 1 4 7 8 6 5
75 77 79 77 70 65 59 52 47 42 39 36 29 20 11 6 4 2 1 1 0 0 0 0 0 0 0 0 0 1 1 1 0 0 1 1 1 2 5 9 9 7 6
63 65 69 71 68 64 58 52 48 43 40 38 32 23 14 8 5 3 2 2 1 0 0 0 0 0 0 0 1 1 0 0 1 1 2 4 5 5 8 10 11 9 8
55 56 58 61 63 61 58 55 50 42 37 35 32 25 16 8 4 3 2 2 1 0 0 0 0 0 0 0 0 0 0 0 1 2 3 5 6 7 10 12 12 12 10
52 49 48 53 57 58 56 54 48 41 36 31 28 24 17 7 2 1 1 1 1 0 0 0 0 0 0 0 0 0 0 0 1 2 3 5 6 7 8 10 11 10 8
47 43 42 46 50 53 54 52 47 41 35 29 24 21 14 6 1 1 1 0 0 0 0 0 0 0 0 0 0 0 0 0 0 1 3 6 8 7 6 7 7 6 4
41 39 38 39 42 47 50 48 44 39 32 26 21 17 11 4 1 1 1 0 0 0 0 0 0 0 0 0 0 0 0 0 0 0 3 7 9 7 6 6 6 4 4
35 35 35 35 37 41 41 39 37 34 28 20 17 14 9 3 1 1 1 0 0 0 0 0 0 1 0 0 0 0 0 0 0 1 3 5 7 8 8 8 8 7 6
32 33 33 32 31 32 32 29 28 27 21 14 12 12 8 3 1 1 2 1 1 1 1 0 0 0 0 0 0 0 0 0 1 2 3 3 5 7 9 10 10 9 9
31 32 32 28 25 24 24 22 20 18 12 8 9 10 7 3 1 2 3 3 2 1 1 0 0 0 0 0 0 0 0 1 2 2 3 3 4 6 7 8 8 7 7
29 30 29 25 21 20 19 17 13 9 5 4 5 7 6 3 2 3 4 3 3 2 1 0 0 0 0 0 0 0 0 1 2 2 2 2 2 3 4 4 4 3 2
25 26 25 22 21 20 18 14 10 6 4 2 2 3 4 4 3 4 4 4 3 2 1 0 0 0 0 0 0 0 0 0 1 1 1 1 1 1 1 1 1 1 0
19 20 20 19 20 21 19 14 10 7 5 3 2 2 4 6 6 5 5 4 3 2 0 0 0 0 0 0 0 0 0 0 0 0 0 0 0 0 0 0 0 0 0
15 15 16 16 18 19 18 14 10 7 7 6 5 4 4 6 7 6 4 4 3 1 1 1 1 1 0 0 0 0 0 0 0 0 0 0 0 0 0 0 0 0 0
13 14 15 16 16 14 14 12 9 7 7 7 6 4 4 6 6 5 4 4 3 3 2 2 2 2 1 0 0 0 0 0 0 0 0 0 0 0 0 0 0 0 0
11 12 14 14 13 11 9 9 7 5 5 5 3 3 4 5 6 5 4 4 4 3 3 3 3 2 1 0 0 0 0 0 0 0 0 0 0 0 0 0 0 0 0
9 9 10 11 9 8 7 6 4 3 3 2 2 2 3 4 5 5 4 4 4 3 3 3 2 3 2 1 0 0 0 0 0 0 0 0 0 0 0 0 0 0 0
7 7 7 8 7 6 6 5 3 2 1 1 1 2 3 4 4 4 4 4 4 3 3 3 3 3 2 1 0 0 0 0 0 0 0 0 0 0 0 0 0 0 0

GEFSSE_con_prob3kmehi_120.txt.gz
EHI
37 46 52 51 52 63 76 84 87 90 90 88 80 68 52 40 34 30 25 19 15 13 11 10 9 8 6 4 4 4 4 3 2 2 2 2 1 0 0 0 0 0 0
47 51 56 56 58 65 74 79 82 85 87 84 79 70 56 44 38 34 28 22 17 14 12 10 7 6 4 3 3 3 3 2 1 1 1 1 0 0 0 0 0 0 0
59 58 59 62 66 70 73 75 78 81 83 80 75 69 58 49 44 38 31 26 21 15 11 7 5 4 3 2 1 2 2 1 0 0 0 0 0 0 0 0 0 0 0
64 60 60 67 74 76 75 75 78 80 79 75 70 65 58 52 48 42 34 28 23 15 9 6 4 4 3 1 0 1 1 0 0 0 0 0 0 0 0 0 0 0 0
63 61 63 72 80 80 79 80 82 80 75 70 65 61 57 54 51 45 36 29 22 14 8 5 4 4 3 1 0 0 0 0 0 0 0 0 0 0 0 0 0 0 0
60 61 67 76 82 83 82 83 83 79 71 65 60 57 54 52 48 43 34 26 18 12 7 5 4 4 3 1 0 0 0 0 0 0 0 0 0 0 0 0 0 0 0
60 63 69 77 82 82 80 79 78 74 68 61 56 54 50 47 42 36 28 21 16 12 8 6 6 5 3 1 0 0 0 0 0 0 0 0 0 1 0 0 0 0 0
63 66 70 74 76 77 76 74 73 70 66 60 54 49 44 39 34 28 23 18 16 13 10 8 6 4 4 2 1 0 0 0 0 0 0 0 0 0 0 0 0 0 0
65 68 69 69 69 69 69 69 69 68 63 56 49 42 36 31 25 21 18 17 15 12 9 6 5 4 4 3 1 0 0 0 0 0 0 0 0 0 0 0 0 0 0
64 67 68 67 66 65 65 65 65 63 58 50 41 34 30 26 20 16 16 15 11 7 5 4 4 5 5 4 2 1 1 0 0 0 0 0 1 0 0 1 1 1 0
59 63 65 66 64 65 67 66 63 59 54 47 37 30 27 23 18 14 13 11 8 6 4 4 6 9 7 5 4 3 2 0 0 0 0 2 3 2 1 3 4 3 1
48 53 58 59 60 64 68 67 62 57 53 45 37 31 27 22 17 13 10 9 8 8 7 7 9 10 8 6 5 4 2 0 0 1 2 4 5 3 2 4 6 5 2
35 42 47 50 53 57 62 63 60 56 51 44 37 32 28 23 18 14 11 8 7 8 10 10 9 8 6 4 3 2 1 0 0 1 3 5 4 1 1 2 4 5 3
31 35 39 43 46 49 51 52 52 50 47 42 36 32 29 26 19 13 9 6 4 5 7 7 6 4 3 1 1 0 0 0 0 2 4 4 2 0 0 0 2 3 2
32 33 36 38 40 41 41 41 41 42 40 36 32 30 29 26 19 11 7 4 3 2 2 2 2 2 1 0 0 0 0 0 0 2 3 3 1 0 0 0 1 2 1
30 31 34 34 33 33 33 32 32 34 34 31 29 27 25 21 15 10 6 4 2 1 1 0 0 0 0 0 0 0 0 0 0 1 3 2 2 2 1 0 1 1 0
28 31 32 30 28 28 29 28 27 28 28 27 25 22 20 16 11 9 6 3 2 2 2 1 1 0 0 0 0 0 0 0 0 1 2 2 3 4 3 2 1 0 0
27 31 31 27 25 27 26 24 22 20 20 18 17 16 13 10 9 8 6 4 2 3 4 3 2 1 0 0 0 0 0 0 0 1 1 2 2 4 4 4 2 0 0
24 26 26 23 23 25 24 19 14 12 11 9 9 9 8 7 7 7 7 5 4 4 4 3 2 1 0 0 0 0 0 0 0 0 0 0 1 2 3 3 1 0 0
19 20 19 18 19 22 21 15 8 5 5 4 4 4 4 5 6 6 6 5 4 3 3 2 2 1 0 0 0 0 0 0 0 0 0 0 0 1 1 1 0 0 0
15 15 15 15 16 17 17 13 6 3 3 3 2 2 2 3 4 4 5 4 3 2 1 1 1 0 0 0 0 0 0 0 0 0 0 0 0 0 0 0 0 0 0
13 13 12 12 13 13 13 10 6 3 3 2 1 0 0 1 2 3 4 3 3 2 1 0 0 0 0 0 0 0 0 0 0 0 0 0 0 0 1 0 0 0 0
13 12 10 8 8 10 10 8 6 4 3 1 0 0 0 0 1 2 3 3 3 3 2 1 0 0 0 0 0 0 0 0 0 0 0 0 0 0 0 0 0 1 1
9 9 8 6 5 7 8 7 6 4 2 1 0 0 0 0 0 1 1 2 3 3 3 2 1 0 0 0 0 0 0 0 0 0 0 0 0 0 0 0 0 0 0
4 5 5 4 4 4 5 4 4 3 1 0 0 0 0 0 0 0 0 1 2 3 3 3 2 1 0 0 0 0 0 0 0 0 0 0 0 0 0 0 0 0 0
2 3 3 3 3 3 3 3 2 2 1 0 0 0 0 0 0 0 0 1 2 3 3 3 3 2 1 0 0 0 0 0 0 0 0 0 0 0 0 0 0 0 0

GEFSSE_con_prob3kmehi_126.txt.gz
EHI
27 34 37 33 31 30 32 36 38 30 18 11 11 12 13 13 11 8 7 6 5 5 6 6 5 2 0 0 0 0 0 0 0 0 0 0 0 0 0 0 0 0 0
38 40 40 37 36 35 36 41 44 39 29 21 18 17 16 16 15 13 11 9 8 7 8 9 7 4 2 1 0 0 0 0 0 0 0 0 0 0 0 0 0 0 0
45 43 41 43 47 45 46 51 55 53 45 36 30 26 23 22 21 18 15 13 11 9 10 11 10 7 4 2 1 0 0 0 0 0 0 0 0 0 0 0 0 0 0
43 42 43 50 56 58 60 64 67 65 58 50 42 38 34 31 28 23 18 16 13 11 11 11 11 10 6 3 1 0 0 0 0 0 0 0 1 2 1 0 0 0 0
36 39 46 54 60 64 69 73 75 74 70 63 57 52 47 41 35 28 22 18 15 14 12 10 9 10 7 3 1 0 0 0 0 0 0 0 2 3 2 0 0 0 0
28 31 42 53 57 62 69 74 78 80 79 74 67 63 58 51 42 33 25 18 16 15 12 8 8 9 7 3 0 0 0 0 0 0 0 0 2 4 2 0 0 0 0
22 27 37 45 48 53 63 70 76 81 82 78 72 69 64 57 49 38 26 17 15 14 11 9 10 11 7 3 1 0 0 0 0 0 0 0 3 4 2 0 0 0 0
23 28 32 31 31 38 50 61 70 76 79 77 72 68 62 58 52 42 29 22 20 18 12 11 12 11 7 4 2 1 0 0 0 0 0 1 3 3 1 0 0 0 0
23 27 26 18 15 22 33 46 57 65 70 70 66 60 55 52 48 40 32 29 27 23 17 14 12 9 6 4 2 1 0 0 0 0 0 2 3 2 0 0 0 0 0
20 22 21 14 9 11 18 29 39 47 53 55 51 47 42 37 32 27 26 29 28 22 20 16 12 7 3 2 2 1 0 0 0 0 1 3 5 2 0 0 0 0 0
19 19 18 15 12 10 12 20 25 28 33 34 32 31 28 22 17 15 21 27 22 16 16 15 9 5 2 1 1 0 0 0 0 0 3 7 6 2 0 0 0 0 0
20 18 17 17 17 16 18 23 24 24 26 23 23 25 24 21 17 17 25 26 16 9 10 10 7 3 1 1 1 1 0 0 0 1 6 10 7 2 0 0 0 0 0
22 20 20 21 22 24 28 34 35 36 35 31 29 30 31 31 27 27 31 28 17 10 9 9 7 3 1 1 1 1 0 1 2 4 8 12 9 4 1 0 0 0 0
24 23 23 26 30 34 39 43 43 44 44 42 39 36 35 36 32 32 36 33 26 19 17 16 11 5 1 0 0 0 0 1 2 6 10 11 8 5 2 1 0 0 0
27 26 25 28 34 39 43 45 44 43 44 43 40 34 32 34 33 32 34 35 31 28 27 25 19 12 6 2 0 0 0 1 2 5 8 8 6 4 2 2 1 0 0
27 26 25 28 33 37 39 40 40 40 40 38 36 32 30 32 32 29 28 30 32 32 32 29 23 19 12 5 1 1 1 2 2 2 4 6 5 3 3 3 2 2 1
21 23 25 27 30 31 31 31 31 32 33 33 32 31 30 31 32 29 26 26 29 32 32 28 24 22 16 9 5 5 5 4 3 1 3 7 7 4 4 3 3 3 3
17 22 26 26 26 26 25 25 25 26 28 28 27 26 25 25 27 27 25 25 26 27 28 27 24 21 18 13 10 10 8 6 4 2 3 7 8 6 5 3 2 3 3
15 22 28 27 24 24 25 24 25 27 28 26 24 22 19 17 19 23 25 25 25 24 25 26 25 23 20 16 12 11 9 7 4 1 2 5 7 7 5 2 2 2 2
16 21 27 28 26 27 29 28 27 27 26 24 21 20 16 13 14 19 24 25 24 22 22 24 26 26 24 19 13 10 8 7 5 3 3 5 6 6 4 3 2 3 2
17 20 24 26 27 28 30 30 27 23 21 18 16 15 13 10 11 15 20 21 20 19 19 22 26 26 24 20 15 10 7 6 5 5 5 6 6 5 5 4 3 4 4
16 17 19 21 23 24 25 27 25 21 17 14 12 11 10 9 9 12 15 17 17 17 18 20 22 22 18 16 14 10 6 4 3 3 4 4 5 6 6 5 4 4 4
12 13 15 16 17 18 20 22 21 18 15 12 10 9 9 8 8 9 11 13 14 16 17 17 17 16 13 11 10 9 7 5 3 1 1 1 4 6 5 4 4 4 4
8 10 13 14 13 14 16 17 16 14 12 10 8 8 7 6 6 6 7 9 11 13 13 12 12 11 10 9 8 8 9 7 3 1 0 0 1 3 3 3 4 4 4
6 7 10 12 12 12 13 13 13 10 8 7 7 6 5 4 3 3 4 6 7 8 9 8 8 9 8 7 8 9 8 5 2 0 0 0 0 1 1 1 2 3 3
4 6 8 11 11 11 11 11 10 7 6 6 6 5 4 3 2 2 2 3 4 5 6 6 6 7 8 8 9 9 6 3 1 0 0 0 0 0 1 1 1 1 2

GEFSSE_con_prob3kmehi_132.txt.gz
EHI
50 49 50 40 18 3 0 0 0 0 1 1 3 3 4 7 10 10 9 8 6 3 1 1 1 1 0 0 0 1 2 3 1 1 2 3 3 2 1 1 1 1 2
52 50 50 40 19 4 0 0 0 1 1 1 1 1 3 5 8 8 6 5 4 3 1 0 0 0 0 0 0 0 1 1 0 0 1 1 1 1 1 3 4 3 3
50 47 45 37 19 6 1 0 0 1 1 0 0 0 1 3 5 5 3 3 3 2 1 0 0 0 0 0 0 0 0 0 0 0 0 0 0 0 2 6 7 5 3
42 40 40 37 24 12 6 3 1 0 0 0 0 0 0 1 3 4 3 3 4 3 1 0 0 0 0 0 0 0 0 0 1 1 0 0 1 2 4 6 5 3 2
32 36 43 44 34 21 14 9 5 3 2 2 1 1 1 1 2 3 3 4 5 4 2 1 1 0 1 1 1 0 0 1 2 2 1 1 3 5 7 6 3 1 0
31 34 44 51 45 30 20 15 10 8 8 7 5 3 3 4 4 4 4 4 4 4 3 2 1 0 1 2 1 0 1 2 3 3 3 5 8 9 9 7 4 2 0
43 37 41 52 50 34 25 22 17 14 15 14 11 9 9 9 7 6 6 5 4 3 3 2 1 0 1 1 1 0 1 2 3 3 6 12 15 14 11 9 6 3 1
54 43 38 43 42 34 31 30 26 24 25 24 22 19 16 14 11 9 9 7 4 1 1 2 1 1 1 1 0 0 1 2 4 4 9 16 21 19 15 11 7 5 2
49 39 28 26 26 26 29 34 37 37 37 35 32 26 19 14 10 8 7 6 3 1 1 1 2 2 2 1 0 0 0 2 3 4 10 21 28 28 20 12 8 6 4
37 27 16 12 11 13 19 29 38 41 41 38 32 24 16 9 6 5 5 5 5 3 1 1 2 2 2 2 1 0 0 0 1 3 13 28 39 36 24 14 8 6 5
31 23 15 12 9 6 10 19 26 29 31 29 23 19 13 6 3 3 7 12 12 7 4 2 2 2 3 2 1 0 0 0 0 3 16 35 45 39 26 14 8 5 3
31 26 22 21 15 11 14 18 14 16 23 20 17 18 13 6 5 7 16 24 22 13 7 4 3 2 2 2 1 0 0 1 1 4 18 37 45 39 27 16 9 4 1
34 30 29 28 25 26 31 27 18 20 27 24 20 22 19 14 15 20 28 33 27 16 9 8 6 3 1 1 1 0 0 1 4 7 19 34 40 36 28 17 9 4 3
37 35 34 34 35 43 47 39 32 34 36 31 28 30 30 29 29 33 38 37 29 17 10 10 8 4 1 1 1 1 1 2 5 10 18 29 34 32 28 19 10 6 6
39 38 38 41 45 53 56 50 44 42 39 35 36 38 38 39 40 40 40 37 29 19 13 11 9 7 5 4 3 3 3 3 5 8 15 26 32 31 27 20 12 7 7
43 42 41 45 51 55 57 55 51 46 42 40 42 43 41 42 43 41 38 34 27 21 17 14 12 11 10 8 6 5 7 7 7 9 14 22 28 27 23 18 13 9 7
46 44 42 45 50 53 53 54 51 47 44 43 42 42 41 42 44 41 36 31 25 22 21 19 18 16 13 10 8 8 11 13 12 14 17 19 20 18 16 15 13 10 9
45 46 45 44 47 49 49 49 48 45 43 42 41 40 40 41 42 40 35 31 27 25 24 20 20 19 14 10 9 10 13 15 15 16 18 17 15 12 11 12 12 11 11
41 44 46 45 46 46 45 45 44 43 42 41 41 40 38 38 40 38 35 32 29 26 21 17 18 18 14 11 8 7 10 13 14 14 13 13 12 11 10 9 10 10 10
34 39 42 43 45 45 45 44 43 41 41 40 39 38 36 36 37 35 32 30 26 21 17 15 14 14 13 10 5 3 6 9 11 11 9 9 9 10 10 9 8 8 8
30 33 37 40 42 43 45 44 42 39 39 37 34 33 33 31 30 28 26 25 21 17 16 15 13 12 10 8 4 2 3 4 6 7 7 8 8 8 9 11 10 8 7
27 29 33 35 36 38 40 40 38 36 35 34 31 29 27 24 20 18 19 20 19 17 16 16 13 11 9 6 4 3 2 3 3 5 6 6 6 7 8 9 10 9 7
21 23 27 29 30 31 32 33 32 31 32 32 31 28 23 18 13 11 11 14 16 16 15 14 12 10 8 5 4 3 3 3 3 3 4 3 4 5 5 6 8 8 7
13 16 19 22 24 26 26 27 27 28 28 29 28 24 20 15 10 8 8 10 12 13 11 11 11 11 9 6 4 4 3 3 3 3 2 1 2 3 3 4 5 5 4
6 8 11 14 17 21 22 23 22 22 23 24 22 18 15 13 10 7 7 8 9 8 7 9 12 12 10 8 6 5 4 4 3 2 1 2 3 3 2 3 4 3 2
2 3 5 7 11 16 19 19 18 18 19 20 19 15 12 11 9 7 6 7 7 6 6 9 12 13 11 9 7 6 6 5 4 2 2 2 3 3 3 3 3 2 1

GEFSSE_con_prob3kmehi_138.txt.gz
EHI
9 16 26 30 30 29 24 19 18 19 20 20 22 28 34 38 39 35 29 23 14 6 1 0 0 0 1 1 1 0 1 2 2 1 1 5 7 6 7 6 2 0 0
23 25 29 32 30 28 23 19 16 17 18 17 18 22 27 30 33 31 25 18 10 4 1 0 0 0 1 1 0 0 0 1 1 0 1 3 5 6 5 5 3 1 1
43 36 32 31 29 25 23 19 15 13 13 12 12 15 18 21 24 22 15 9 4 1 0 0 0 0 1 0 0 0 0 0 0 0 0 1 3 5 6 5 4 3 3
54 43 34 32 29 24 21 18 13 10 9 8 8 9 10 12 13 10 6 2 1 0 0 0 0 0 0 0 0 0 0 0 0 0 0 0 1 4 7 7 6 5 4
54 46 41 39 35 27 20 13 10 8 6 5 4 4 4 4 3 2 1 0 0 0 0 0 0 0 0 0 0 0 0 0 0 0 0 0 0 3 6 8 9 7 4
53 49 49 48 43 33 23 14 9 6 4 3 1 1 1 1 1 1 2 1 1 0 0 0 0 0 0 0 1 1 0 0 0 0 0 0 0 1 5 9 10 9 6
54 50 50 52 48 40 32 21 12 6 3 1 0 1 1 1 2 2 2 2 2 1 0 0 0 0 0 1 2 2 1 1 1 0 0 0 0 1 4 8 10 9 7
50 48 48 49 48 44 39 29 17 8 3 1 1 2 2 3 3 2 1 1 2 1 0 0 0 0 0 1 1 1 1 1 0 0 0 0 1 3 4 5 6 5 5
42 44 45 44 43 43 41 35 24 13 6 4 3 3 3 3 2 1 0 0 1 1 0 0 0 0 0 0 0 0 0 0 0 0 0 0 1 4 5 4 3 2 2
35 36 37 38 37 37 36 34 27 17 10 6 4 3 3 3 1 0 0 0 0 1 1 0 0 0 0 0 0 0 0 0 0 0 0 0 2 5 7 5 2 2 2
25 26 27 29 30 27 25 24 20 14 10 7 5 4 4 4 2 1 1 1 1 2 1 0 0 0 0 0 0 0 0 0 0 0 0 1 4 8 10 6 3 1 1
15 17 18 19 20 18 16 16 13 10 9 8 6 5 5 4 2 1 1 1 2 3 2 2 1 1 0 0 0 0 0 0 0 0 1 2 7 12 13 8 3 1 1
13 14 13 12 12 12 12 12 11 10 10 9 6 5 4 2 1 1 1 2 3 4 4 5 4 2 1 0 0 0 0 0 0 0 1 4 10 13 11 7 4 3 2
14 13 12 11 11 12 12 11 10 11 11 9 6 4 2 1 0 0 1 2 3 3 5 5 4 2 1 0 0 0 0 0 0 0 2 6 12 12 9 6 6 6 6
15 14 13 12 12 12 12 11 10 10 11 9 6 4 2 1 0 0 1 2 2 1 3 3 2 1 1 0 0 0 0 0 0 0 2 7 12 13 10 7 7 8 8
17 17 17 15 13 12 12 12 11 11 11 9 5 3 2 1 0 0 2 3 1 0 1 1 0 0 0 0 0 0 0 0 1 0 1 5 8 11 10 9 9 9 8
18 18 18 18 16 13 11 11 11 11 9 6 4 3 2 1 1 1 2 2 1 0 0 0 0 0 0 0 0 0 0 0 0 0 1 3 4 6 8 9 10 10 9
14 15 14 15 14 12 10 9 9 9 8 6 4 4 3 3 3 3 2 1 0 0 0 0 0 0 0 0 0 0 0 0 0 0 1 1 1 2 5 8 9 8 7
9 10 9 9 9 10 11 11 10 9 10 10 8 5 4 5 5 3 1 0 0 0 0 0 0 0 0 0 0 0 0 0 0 0 0 0 0 0 2 5 6 6 6
5 6 7 7 7 9 11 12 12 12 13 14 13 8 5 6 6 4 1 0 0 0 0 0 0 0 0 0 0 0 0 0 0 0 0 0 0 0 0 2 3 4 5
5 6 8 8 8 8 9 11 12 14 14 15 14 12 8 7 6 4 2 1 1 1 0 0 0 0 0 0 0 0 0 0 0 0 0 0 0 0 0 0 1 1 2
7 9 10 9 9 9 8 9 12 13 12 11 11 11 10 8 7 5 3 2 2 2 1 0 0 0 0 0 0 0 0 0 0 0 0 0 0 0 0 0 0 0 0
7 9 10 10 10 9 9 10 12 11 9 6 6 7 8 7 6 5 3 3 3 2 1 0 0 0 0 0 0 0 0 0 0 0 0 0 0 0 0 0 0 0 0
4 5 7 8 9 9 10 11 11 10 6 3 3 5 5 4 3 3 3 3 3 3 1 0 0 0 0 0 0 0 0 0 0 0 0 0 0 0 0 0 0 0 0
1 2 3 4 5 6 7 8 9 7 4 2 2 3 2 1 1 1 3 3 3 3 2 1 0 0 0 0 0 0 0 0 0 0 0 0 0 0 0 0 0 0 0
0 0 1 1 2 2 3 5 6 5 3 1 1 1 1 0 0 1 2 3 3 3 2 1 0 0 0 0 0 0 0 0 0 0 0 0 0 0 0 0 0 0 0

GEFSSE_con_prob3kmehi_144.txt.gz
EHI
7 9 11 14 24 44 64 75 81 83 82 79 72 59 44 28 17 11 7 6 6 4 1 0 0 0 1 2 3 3 2 2 1 0 0 0 1 1 1 2 2 1 2
16 13 11 15 26 42 56 68 76 80 80 77 72 62 48 34 22 14 9 8 7 5 2 0 1 1 1 2 3 3 2 2 1 0 0 0 0 0 0 1 1 1 2
27 19 13 16 26 39 49 59 67 72 74 72 66 58 48 37 27 19 14 11 8 6 3 2 1 1 1 2 2 2 1 1 0 0 0 0 0 0 0 0 0 2 3
32 23 16 19 28 38 47 55 61 62 60 57 49 43 39 35 27 21 17 14 11 7 5 3 2 1 1 1 2 1 0 0 0 0 0 0 0 0 0 1 1 2 4
32 26 23 27 32 38 45 52 55 52 44 36 31 28 28 29 25 19 17 16 13 8 5 3 1 0 0 1 2 2 1 1 1 0 0 0 0 0 0 1 2 3 3
31 29 30 35 38 38 42 46 46 43 34 25 21 20 20 22 20 16 14 12 10 6 2 1 1 0 0 1 3 3 2 1 0 0 0 0 0 0 0 1 1 3 3
33 31 32 38 41 39 38 39 40 38 32 25 20 17 16 15 13 11 9 6 4 3 1 0 0 0 0 1 2 3 2 1 0 0 0 0 0 1 0 0 1 3 4
35 33 31 34 38 39 38 37 36 34 30 25 21 16 12 8 5 5 4 3 2 1 1 2 1 0 0 0 1 3 3 1 1 0 0 0 1 2 1 0 2 4 4
33 32 31 30 33 38 41 39 33 28 26 23 20 14 8 4 2 3 4 4 3 2 2 3 2 1 1 0 1 3 3 1 1 0 0 0 1 2 1 1 3 4 4
27 27 29 30 29 35 41 41 34 25 21 18 15 11 7 5 4 4 4 4 3 1 1 2 3 3 2 1 1 2 3 2 1 0 0 0 1 2 1 1 3 4 4
22 23 27 29 29 31 36 36 31 23 17 13 10 9 7 5 5 4 3 2 2 2 1 2 3 4 2 1 0 1 2 2 1 0 0 0 1 2 2 2 3 4 2
19 19 23 26 27 28 27 26 24 20 14 9 8 8 6 3 2 2 2 1 2 3 3 3 3 3 2 1 0 0 1 2 1 0 0 0 1 2 4 4 3 2 1
13 15 18 22 23 22 20 19 19 16 11 7 7 6 3 0 0 1 1 1 2 3 4 4 3 3 3 1 0 0 0 1 1 0 0 1 2 3 5 6 5 2 1
6 9 12 15 16 17 17 16 15 14 10 7 5 4 1 0 0 0 1 1 1 1 2 3 2 3 2 1 0 0 0 0 0 0 1 2 2 2 3 5 6 4 2
4 5 7 9 10 12 12 11 9 9 8 4 2 1 0 0 0 0 1 1 0 0 1 1 1 1 1 0 0 0 0 0 0 0 1 2 2 2 2 4 5 5 4
4 4 4 6 6 6 6 5 4 5 4 2 0 0 0 0 0 0 1 1 0 0 0 0 0 0 0 0 0 0 0 0 0 0 0 1 3 4 4 5 6 5 4
4 3 3 4 4 3 2 1 1 2 2 1 0 0 0 0 0 0 0 0 0 0 0 0 0 0 0 0 0 0 0 0 0 0 0 1 2 4 5 5 6 5 3
5 3 2 2 1 1 0 0 1 1 1 1 1 0 0 0 0 0 0 0 0 0 0 0 0 0 0 0 0 0 0 0 0 0 0 0 1 2 3 3 4 4 3
6 4 2 1 0 0 1 1 1 1 1 0 0 0 0 0 0 0 0 0 0 0 0 0 0 0 0 0 0 0 0 0 0 0 0 0 0 1 2 2 1 1 1
6 5 3 1 0 0 1 2 2 2 1 0 0 0 0 0 0 0 0 0 0 0 0 0 0 0 0 0 0 0 0 0 0 0 0 0 0 0 1 1 0 0 0
6 5 3 1 0 0 0 1 2 2 1 0 0 0 0 0 0 0 0 0 0 0 0 0 0 0 0 0 0 0 0 0 0 0 0 0 0 0 0 0 0 0 0
4 3 2 1 0 0 0 0 1 1 0 0 0 0 0 0 0 0 0 0 0 0 0 0 0 0 0 0 0 0 0 0 0 0 0 0 0 0 0 0 0 0 0
2 3 3 2 1 0 0 0 1 0 0 0 0 0 0 0 0 0 0 0 0 0 0 0 0 0 0 0 0 1 0 0 0 0 0 0 0 0 0 0 0 0 0
3 3 3 3 2 1 0 0 0 0 0 0 0 0 0 0 0 0 0 0 0 0 0 0 0 0 0 0 0 0 0 0 0 0 0 0 0 0 0 0 0 0 0
3 3 3 3 3 2 1 0 0 0 0 0 0 0 0 0 0 0 0 0 0 0 0 0 0 0 0 0 0 0 0 0 0 0 0 0 0 0 0 0 0 0 0
3 3 3 3 3 3 2 1 0 0 0 0 0 0 0 0 0 0 0 0 0 0 0 0 0 0 0 0 0 0 0 0 0 0 0 0 0 0 0 0 0 0 0

GEFSSE_con_prob3kmehi_150.txt.gz
EHI
0 2 2 1 5 19 37 49 46 32 20 17 14 10 8 9 7 3 1 2 5 7 6 2 1 1 0 0 1 1 1 0 0 0 0 0 0 0 0 0 0 1 1
2 3 3 3 8 22 38 47 46 36 26 23 20 15 11 9 6 2 0 1 4 7 7 3 1 1 0 0 0 1 2 1 0 0 0 0 0 0 0 0 0 0 1
7 5 4 6 13 25 37 46 50 47 39 35 31 23 16 11 6 2 0 1 3 5 4 2 0 0 0 0 0 1 2 1 0 0 0 0 0 0 0 0 0 0 0
13 9 6 9 16 25 36 45 52 52 47 43 37 28 19 12 6 2 1 1 1 1 1 0 0 0 0 0 0 0 1 1 0 0 0 0 1 2 1 0 0 0 0
16 12 9 10 16 26 35 42 48 48 46 42 35 27 20 11 5 3 2 2 1 1 1 0 0 0 0 0 0 0 0 0 0 0 0 0 1 3 1 0 0 0 0
13 11 10 11 15 25 33 41 44 43 41 36 29 25 20 12 6 5 5 4 3 2 2 1 0 0 0 0 0 0 0 0 0 0 0 0 2 4 2 0 0 0 0
8 9 10 12 15 22 29 35 39 39 35 29 24 21 17 13 9 7 7 6 4 3 2 1 0 0 0 0 0 0 0 0 0 0 0 1 4 5 2 0 0 0 0
7 9 11 11 13 18 24 28 32 35 32 26 20 17 15 12 10 8 7 5 4 3 2 1 0 0 0 0 0 0 0 0 0 0 0 2 4 4 1 0 0 0 0
9 10 9 8 8 12 19 25 29 32 31 25 20 17 15 12 9 7 5 4 3 3 2 1 0 0 0 0 0 0 0 0 0 0 0 2 4 3 1 0 0 0 0
13 11 9 6 6 8 14 21 26 26 25 23 21 18 14 9 7 5 4 4 3 1 1 0 0 0 0 0 0 0 0 0 0 0 1 3 5 4 1 0 0 0 0
21 18 13 10 9 9 12 18 19 17 17 17 16 13 9 6 4 3 3 4 3 1 0 0 0 0 0 0 0 0 0 0 0 0 3 5 6 4 2 1 0 0 0
28 23 18 17 15 14 16 20 19 15 14 13 12 9 7 6 5 3 3 2 1 0 0 0 0 1 1 1 1 1 0 0 0 0 3 6 4 3 4 3 2 0 0
28 23 20 19 20 20 23 25 24 22 19 17 14 11 9 8 5 3 1 0 0 0 0 0 1 2 2 2 2 1 0 0 0 1 4 5 3 1 4 5 3 2 1
23 20 18 19 21 25 28 28 28 26 24 21 18 13 10 7 4 2 2 2 2 2 1 1 2 2 3 3 2 1 0 0 0 2 5 6 3 0 2 3 4 3 3
19 18 17 18 21 26 29 29 27 26 24 22 19 14 9 6 3 2 3 4 5 4 2 2 2 2 2 2 1 0 0 0 1 1 4 6 3 1 1 3 4 4 4
17 18 18 18 20 24 26 25 24 22 22 21 19 14 9 6 4 3 4 5 6 4 2 1 1 1 2 2 1 1 1 1 1 1 2 5 4 2 2 3 4 4 4
18 19 19 18 18 20 19 19 19 18 18 18 17 14 9 5 3 4 5 5 5 4 3 2 1 1 1 2 2 2 2 1 1 1 2 3 3 1 1 2 3 4 5
20 19 18 16 16 15 14 14 15 15 16 15 14 12 9 4 4 6 6 5 4 3 4 4 4 4 2 2 2 2 2 2 1 0 1 1 1 1 1 2 2 3 3
17 16 14 13 14 15 15 15 14 14 15 13 11 11 9 6 4 5 5 4 4 4 6 7 7 6 4 2 1 1 2 2 1 1 1 0 1 3 3 3 4 3 3
11 11 10 10 13 16 17 16 14 13 13 11 11 12 11 7 4 3 3 4 4 5 8 9 7 5 4 2 1 0 1 1 1 1 1 0 1 2 3 5 6 5 4
6 7 7 8 11 14 14 13 12 11 10 9 10 11 10 8 6 4 5 6 7 8 9 8 5 2 2 2 1 0 0 0 0 1 1 0 0 1 3 5 6 5 4
5 5 5 7 9 10 10 9 9 8 8 6 6 6 7 8 8 8 7 8 9 10 9 6 3 1 1 1 1 1 0 0 0 0 0 0 0 1 2 3 4 4 4
4 4 5 7 8 8 6 5 5 6 7 6 5 5 6 6 7 8 9 8 9 9 7 5 2 1 0 0 1 2 2 1 0 0 0 0 0 1 1 1 2 2 3
2 3 5 7 8 7 5 3 3 4 6 7 7 7 6 5 4 5 6 6 7 7 7 5 2 1 1 1 2 3 3 2 1 0 0 0 0 0 0 0 0 1 2
1 3 5 7 7 6 5 3 3 4 6 7 7 6 5 3 2 3 4 5 6 8 7 4 2 2 2 2 2 3 3 3 2 1 0 0 0 0 0 0 0 1 1
3 4 6 7 7 5 4 3 3 4 5 5 6 5 3 2 2 4 4 5 6 7 7 4 2 2 3 3 2 2 3 3 3 2 1 0 0 0 0 0 0 1 0

GEFSSE_con_prob3kmehi_156.txt.gz
EHI
22 24 30 29 19 11 6 2 1 0 0 0 0 0 0 0 0 1 2 2 1 0 0 0 0 0 0 0 0 0 1 2 2 1 3 7 8 8 7 4 1 2 3
24 25 30 29 23 15 10 5 1 0 0 0 0 0 0 0 0 0 1 1 0 0 0 0 0 0 0 0 0 0 0 1 1 0 1 3 4 4 4 3 3 3 4
25 24 25 27 25 20 14 8 2 0 0 0 0 0 0 0 0 0 0 0 0 0 0 0 0 0 0 0 0 0 0 0 0 0 0 0 0 1 1 2 3 4 2
25 25 25 26 25 21 16 10 4 1 1 1 0 0 0 0 0 0 0 0 0 0 0 0 0 0 0 0 0 0 0 0 0 1 1 1 2 3 2 1 2 2 1
27 28 30 30 28 23 18 12 8 5 5 3 1 0 1 1 1 0 0 0 0 0 0 0 0 0 0 0 0 0 0 0 1 3 3 3 7 9 5 2 1 0 0
25 27 32 37 34 25 19 16 12 11 10 7 4 3 4 4 3 1 0 0 0 0 0 0 0 0 0 0 0 0 0 0 1 4 5 6 11 13 9 4 2 1 1
24 25 32 39 37 27 20 18 16 15 14 10 8 8 8 7 5 2 0 0 0 0 0 0 0 0 0 0 0 0 0 0 2 4 5 7 11 14 10 5 3 2 2
26 27 30 35 36 30 23 21 20 19 16 12 11 11 10 9 6 2 0 0 0 0 0 0 0 0 0 0 0 0 0 1 3 4 4 7 13 15 10 5 4 3 3
28 28 27 27 28 26 23 23 23 20 17 14 12 10 9 8 5 1 0 0 0 0 0 0 0 0 0 0 0 0 1 2 4 4 4 11 20 20 12 7 5 3 2
32 29 24 20 18 16 15 17 18 18 16 15 11 8 6 5 3 1 1 2 1 0 0 0 0 0 0 0 0 0 1 2 3 3 5 16 29 27 18 11 8 5 3
38 30 22 18 14 9 8 11 13 13 13 11 8 5 3 3 3 3 6 8 5 1 0 0 0 0 0 0 0 0 0 1 1 2 8 21 31 29 20 14 10 7 5
35 29 24 23 18 11 10 13 12 10 10 8 6 5 5 6 6 7 11 13 8 3 0 0 1 0 0 1 2 2 1 0 0 2 9 20 26 22 16 12 9 7 4
30 27 26 27 26 23 21 18 15 14 12 10 10 11 9 9 9 10 12 12 8 4 3 3 3 3 3 4 5 4 2 1 1 2 8 16 20 16 11 10 9 6 3
28 26 26 29 33 37 34 27 22 21 20 18 18 16 11 10 11 11 11 11 9 8 7 7 8 7 6 6 4 3 3 3 2 3 7 14 18 14 9 9 9 7 4
26 26 27 30 36 40 39 34 29 28 25 24 25 22 16 14 14 13 12 13 13 12 11 11 12 12 11 8 5 4 4 3 2 2 5 12 17 16 11 8 8 7 6
25 27 28 31 35 37 36 34 31 28 27 28 27 25 23 21 22 21 19 18 17 16 16 16 15 15 14 10 7 6 6 4 2 1 4 10 14 14 12 10 9 9 8
28 30 29 29 33 36 35 33 30 28 28 27 24 24 24 25 28 30 27 23 21 19 18 18 16 14 12 9 8 7 6 4 2 2 3 6 8 10 11 11 11 12 11
31 32 32 30 33 37 37 35 32 30 28 25 22 21 20 22 27 29 27 24 22 19 16 15 14 11 8 7 7 6 4 3 3 2 2 3 4 6 9 11 11 11 12
31 34 35 34 36 37 36 34 33 30 25 21 19 19 17 18 20 21 21 20 20 18 13 12 13 12 7 4 3 2 2 2 2 2 2 2 2 3 5 8 9 9 8
28 31 34 35 37 37 34 31 29 25 20 17 17 18 16 16 16 17 18 19 18 16 14 13 13 12 7 3 1 0 1 1 2 3 3 2 1 1 3 6 8 7 5
27 27 28 31 34 35 33 30 25 20 16 14 15 14 13 12 13 15 17 19 17 15 14 13 11 8 4 2 1 1 1 2 4 7 7 4 1 1 2 5 7 6 4
28 25 24 26 29 31 31 28 24 19 16 13 11 10 8 9 11 14 16 16 14 14 13 12 8 5 2 1 2 2 1 2 4 6 7 4 2 1 1 3 5 5 4
28 25 23 23 24 26 28 26 22 20 16 12 10 9 8 8 9 11 12 12 12 11 11 9 6 4 3 3 3 4 3 2 2 3 3 3 3 2 1 2 4 5 5
29 27 24 22 21 23 24 22 19 16 14 13 12 12 11 9 7 6 8 9 9 10 9 7 5 4 5 5 5 5 4 3 2 1 1 1 2 3 1 2 4 6 7
27 25 23 21 20 20 20 18 15 13 13 13 13 12 11 8 5 3 4 6 7 7 6 5 5 6 6 6 6 5 4 3 3 1 0 0 1 1 1 2 3 5 6
23 22 21 20 20 20 17 15 14 13 12 12 11 10 10 8 4 2 2 5 6 5 4 4 5 6 6 6 6 5 4 3 3 2 1 0 0 0 1 2 2 2 4

GEFSSE_con_prob3kmehi_162.txt.gz
EHI
10 17 26 29 24 17 12 10 8 6 6 9 13 17 20 26 30 30 25 19 13 8 4 1 0 1 2 3 3 4 3 3 4 3 3 6 9 11 11 9 5 2 3
19 23 30 32 28 20 14 10 7 5 5 8 12 15 17 19 22 22 18 13 9 6 3 1 0 1 2 3 3 3 3 2 2 1 2 4 6 8 9 8 6 4 4
29 30 34 37 33 25 18 13 7 4 4 6 9 12 12 11 12 11 9 6 4 3 1 0 0 1 2 3 2 2 2 2 1 0 1 1 3 5 8 9 8 6 5
32 32 37 41 39 32 25 18 10 6 4 4 5 7 6 5 5 4 3 2 1 1 0 0 0 1 2 2 1 2 2 2 1 1 0 0 1 6 12 13 10 7 5
30 33 40 47 47 39 30 22 16 10 5 3 3 3 2 1 1 1 0 0 0 0 0 0 0 0 1 1 0 1 2 2 1 0 0 0 1 5 11 12 10 7 6
31 33 40 49 49 39 28 22 18 13 7 4 3 2 1 0 0 0 0 0 0 0 0 0 0 0 0 0 0 0 1 2 1 0 0 0 0 3 7 9 8 6 5
35 33 37 44 43 33 25 20 18 14 9 4 3 3 2 1 0 0 0 0 0 0 0 0 0 0 0 0 0 0 1 2 1 0 0 0 1 4 5 6 7 5 4
34 32 32 35 34 29 25 23 19 15 10 5 4 3 3 2 1 0 0 0 0 0 0 0 0 0 0 0 0 0 1 2 1 0 0 1 3 7 7 7 6 5 5
30 30 30 28 27 26 26 25 22 18 13 9 6 4 3 2 1 0 0 0 0 0 0 0 1 1 1 1 1 1 1 1 1 0 0 1 5 8 8 7 5 5 6
27 28 27 25 24 23 23 25 23 20 16 12 8 5 4 2 1 2 2 1 1 1 1 1 1 2 2 2 2 1 1 0 0 0 0 2 6 8 8 7 6 6 7
24 23 24 23 22 21 21 23 22 19 16 13 9 7 5 2 1 2 3 3 2 2 2 1 1 1 1 1 1 1 0 0 0 0 1 3 7 9 9 8 6 6 7
18 17 17 18 18 18 19 20 19 15 13 11 9 7 6 3 1 1 2 3 3 3 2 1 0 0 1 0 0 0 0 0 0 1 3 6 9 9 8 7 7 7 7
18 16 14 14 14 14 16 16 14 11 9 8 7 6 5 3 1 0 1 1 1 2 1 0 0 0 0 0 0 0 0 0 0 1 4 7 8 7 5 4 5 5 5
22 20 17 15 14 14 13 12 10 8 7 5 4 3 2 1 1 0 0 0 0 0 0 0 0 0 0 0 0 0 0 0 0 1 2 4 5 3 2 1 2 2 1
26 24 21 18 17 16 13 10 8 6 5 4 2 1 1 0 0 1 1 0 0 0 0 0 0 0 0 0 0 0 0 0 0 1 1 1 2 2 1 1 1 0 0
28 25 21 18 17 16 13 10 8 7 6 4 3 2 1 1 1 1 1 0 0 0 0 0 0 0 0 0 0 0 0 0 0 1 1 1 1 2 3 3 2 1 1
26 24 20 18 16 15 13 12 10 9 8 6 4 3 3 2 2 1 1 0 0 0 0 0 0 0 0 0 0 0 0 0 0 0 0 0 0 1 2 2 2 1 0
24 24 22 20 19 16 13 12 11 8 7 5 3 2 2 2 2 2 1 0 0 0 0 0 0 0 0 0 0 0 0 0 0 0 0 0 0 0 0 1 1 0 0
25 24 23 23 21 17 13 10 7 4 2 1 1 1 1 1 1 1 1 0 0 0 0 0 0 0 0 0 0 0 0 0 0 0 0 0 0 0 0 0 1 0 0
22 21 20 20 18 15 12 7 3 0 0 0 0 0 0 1 1 0 0 0 0 0 0 0 0 0 0 0 0 0 0 0 0 0 0 0 0 0 0 0 0 0 0
18 16 15 14 13 12 9 4 1 0 0 0 0 0 0 1 0 0 0 0 0 0 0 0 0 0 0 0 0 0 0 0 0 0 0 0 0 0 0 0 0 0 0
16 13 11 10 9 8 5 2 0 0 0 0 0 0 0 0 0 0 0 0 0 0 0 0 0 0 0 0 0 0 0 0 0 0 0 0 0 0 0 0 0 0 0
13 12 11 10 7 5 3 1 0 0 0 0 1 1 0 1 1 1 1 0 0 0 0 0 0 0 0 0 0 0 0 0 0 0 0 0 0 0 0 0 0 0 0
12 11 11 10 8 6 4 2 1 0 0 1 2 2 2 2 2 2 2 1 0 0 0 0 0 0 0 0 0 0 0 0 0 0 0 0 0 0 0 0 0 0 0
12 11 11 9 8 7 6 3 1 0 0 1 2 3 2 2 2 2 2 1 0 0 0 0 0 0 0 0 0 0 0 0 0 0 0 0 0 0 0 0 0 0 0
11 11 11 9 8 7 6 4 2 1 0 1 2 3 2 1 1 1 1 0 0 0 0 0 0 0 0 0 0 0 0 0 0 0 0 0 0 0 0 0 0 0 0